Location: Aragoneses
(41.0275°N, 4.3847°W)
Time: 01:33:41
(UTC+00:00)

Okean 1 - Pass Details

Date: 11 December 2025
Orbit: 465 x 484 km, 82.5° (Epoch: 14 January)

Event Time Altitude Azimuth Distance (km) Brightness Sun altitude
Rises 18:30:21 0° 178° (S) 2,526 6.9 -18.4°
Reaches altitude 10° 18:32:27 10° 174° (S) 1,648 5.8 -18.8°
Enters shadow 18:35:47 56° 113° (ESE) 571 3.1 -19.4°
